This is the latest recevied weather packets stored in our database for station/object WV5G-13. If no packets are shown the sender has not sent any weather packets the latest 10 day(s).
| Time | Temp. | Humidity | Pressure | Rain* | Wind** | Luminosity | Snow |
|---|---|---|---|---|---|---|---|
| 1777419014 | 26.11° C | 21% | 1009.6 hPa | 0 mm | - | 249 W/m² | - |
| 1777418708 | 26.67° C | 19% | 1009.2 hPa | 0 mm | - | 262 W/m² | - |
| 1777418405 | 26.67° C | 20% | 1009.5 hPa | 0 mm | - | 271 W/m² | - |
| 1777418101 | 26.67° C | 20% | 1009.2 hPa | 0 mm | - | 286 W/m² | - |
| 1777417797 | 26.11° C | 20% | 1009.5 hPa | 0 mm | - | 304 W/m² | - |
| 1777417493 | 26.11° C | 20% | 1009.3 hPa | 0 mm | - | 325 W/m² | - |
| 1777417189 | 26.67° C | 20% | 1009.3 hPa | 0 mm | - | 345 W/m² | - |
| 1777416885 | 27.22° C | 19% | 1009.3 hPa | 0 mm | - | 365 W/m² | - |
| 1777416580 | 27.22° C | 19% | 1009.1 hPa | 0 mm | - | 379 W/m² | - |
| 1777416277 | 26.67° C | 16% | 1009.1 hPa | 0 mm | - | 388 W/m² | - |
| 1777415976 | 26.11° C | 19% | 1009.5 hPa | 0 mm | - | 394 W/m² | - |
| 1777415672 | 26.11° C | 20% | 1009.3 hPa | 0 mm | - | 404 W/m² | - |
| 1777415367 | 26.67° C | 20% | 1009.6 hPa | 0 mm | - | 416 W/m² | - |
| 1777415062 | 26.67° C | 22% | 1009.9 hPa | 0 mm | - | 433 W/m² | - |
| 1777414756 | 26.11° C | 21% | 1009.8 hPa | 0 mm | - | 455 W/m² | - |
| 1777414453 | 26.11° C | 22% | 1009.8 hPa | 0 mm | - | 473 W/m² | - |
| 1777414151 | 26.11° C | 21% | 1010 hPa | 0 mm | - | 491 W/m² | - |
| 1777413848 | 26.11° C | 22% | 1009.9 hPa | 0 mm | - | 513 W/m² | - |
| 1777413543 | 26.67° C | 23% | 1010 hPa | 0 mm | - | 534 W/m² | - |
| 1777413239 | 26.11° C | 22% | 1009.9 hPa | 0 mm | - | 550 W/m² | - |
| 1777412935 | 25.56° C | 22% | 1009.9 hPa | 0 mm | - | 566 W/m² | - |
| 1777412634 | 25.56° C | 23% | 1009.9 hPa | 0 mm | - | 586 W/m² | - |
| 1777412331 | 25.56° C | 25% | 1009.9 hPa | 0 mm | - | 599 W/m² | - |
| 1777412027 | 25.56° C | 23% | 1010.2 hPa | 0 mm | - | 608 W/m² | - |
| 1777411726 | 25° C | 25% | 1010.1 hPa | 0 mm | - | 619 W/m² | - |
* Rain latest hour (hover to see other rain measurements)
** Current wind speed in m/s (hover to see current wind gust speed)